TimePST,TemperatureF,Dew PointF,Humidity,Sea Level PressureIn,VisibilityMPH,Wind Direction,Wind SpeedMPH,Gust SpeedMPH,PrecipitationIn,Events,Conditions,WindDirDegrees,DateUTC
12:00 AM,37.4,35.6,93,30.00,15.0,NNE,6.9,-,N/A,,Scattered Clouds,30,2012-11-08 08:00:00
1:00 AM,37.4,35.6,93,29.98,15.0,NNE,8.1,-,N/A,,Scattered Clouds,30,2012-11-08 09:00:00
2:00 AM,37.4,35.6,93,29.96,15.0,NNE,8.1,-,N/A,,Partly Cloudy,30,2012-11-08 10:00:00
3:00 AM,37.4,35.6,93,29.95,15.0,North,5.8,-,N/A,,Partly Cloudy,360,2012-11-08 11:00:00
4:00 AM,38,35,83,29.94,15,NNE,5.8,,,,Clear,30,2012-11-08 12:00:00
4:00 AM,37.4,33.8,87,29.94,15.0,NE,5.8,-,N/A,,Partly Cloudy,40,2012-11-08 12:00:00
5:00 AM,35.6,33.8,93,29.93,15.0,North,6.9,-,N/A,,Partly Cloudy,10,2012-11-08 13:00:00
6:00 AM,37.4,33.8,87,29.92,15.0,NNE,8.1,-,N/A,,Partly Cloudy,30,2012-11-08 14:00:00
7:00 AM,37.4,33.8,87,29.91,30.0,North,5.8,-,N/A,,Partly Cloudy,350,2012-11-08 15:00:00
7:37 AM,35.6,32.0,87,29.92,30.0,North,4.6,-,N/A,,Partly Cloudy,350,2012-11-08 15:37:00
8:00 AM,37.4,33.8,87,29.92,30.0,North,4.6,-,N/A,,Partly Cloudy,10,2012-11-08 16:00:00
9:00 AM,42.8,35.6,76,29.91,30.0,NNE,5.8,-,N/A,,Partly Cloudy,30,2012-11-08 17:00:00
10:00 AM,47,33,48,29.90,28,ENE,4.6,,,,,60,2012-11-08 18:00:00
10:00 AM,48.2,33.8,58,29.90,30.0,NE,11.5,-,N/A,,Clear,50,2012-11-08 18:00:00
11:00 AM,50.0,32.0,50,29.88,30.0,NE,13.8,24.2,N/A,,Partly Cloudy,50,2012-11-08 19:00:00
12:00 PM,51.8,28.4,41,29.87,30.0,NE,16.1,31.1,N/A,,Partly Cloudy,50,2012-11-08 20:00:00
1:00 PM,51.8,28.4,41,29.87,30.0,NE,17.3,32.2,N/A,,Partly Cloudy,40,2012-11-08 21:00:00
2:00 PM,51.8,28.4,41,29.86,30.0,NE,16.1,27.6,N/A,,Partly Cloudy,50,2012-11-08 22:00:00
3:00 PM,51.8,26.6,38,29.86,30.0,NE,15.0,24.2,N/A,,Partly Cloudy,50,2012-11-08 23:00:00
4:00 PM,50,28,30,29.86,28,NE,11.5,,,,Scattered Clouds,50,2012-11-09 00:00:00
4:00 PM,50.0,28.4,43,29.86,30.0,ENE,11.5,-,N/A,,Partly Cloudy,60,2012-11-09 00:00:00
5:00 PM,46.4,28.4,50,29.86,20.0,NE,9.2,-,N/A,,Partly Cloudy,40,2012-11-09 01:00:00
6:00 PM,42.8,28.4,57,29.86,15.0,NNE,6.9,-,N/A,,Partly Cloudy,30,2012-11-09 02:00:00
7:00 PM,42.8,30.2,61,29.86,15.0,NNE,6.9,-,N/A,,Clear,30,2012-11-09 03:00:00
8:00 PM,41.0,28.4,61,29.86,15.0,NE,6.9,-,N/A,,Clear,40,2012-11-09 04:00:00
9:00 PM,41.0,28.4,61,29.87,15.0,NE,5.8,-,N/A,,Clear,40,2012-11-09 05:00:00
10:00 PM,42,26,41,29.87,15,NE,11.5,,,,,40,2012-11-09 06:00:00
10:00 PM,41.0,26.6,57,29.87,15.0,NE,10.4,-,N/A,,Clear,40,2012-11-09 06:00:00
11:00 PM,41.0,24.8,53,29.87,15.0,NNE,9.2,-,N/A,,Clear,30,2012-11-09 07:00:00